BATSU-CS1 (IRAZU) (43468 NORAD) Tracking and Keplerian Element Data

This shows tracking and keplerian element data for the satellite.

Feedback or suggestion? Click here.




ElementValue
Catalog43468
NameBATSU-CS1 (IRAZU)
Epoch Orbit11041
Epoch Day198.5465587
Epoch Year2018
RAAN226.5817
Inclination51.638
Eccentricity6.25E-05
Argument of Perigee31.809
Mean Anonmoly328.2939
Mean Motion15.56458502
Decay Rate0.00012591
L11 43468U 98067NR 18198.54655870 .00012591 00000-0 18110-3 0 9994
L22 43468 51.6380 226.5817 0000625 31.8090 328.2939 15.56458502110419

Live tracking and technical data element details for BATSU-CS1 (IRAZU) (NORAD 43468). BATSU-CS1 (IRAZU) can be tracked NOW for your location showing map with azimuth and elevation plus other details from your city location.

Track the satellite on the map from your city or location and see movement details for azimuth, elevation, latitude, longitude, range, height, and movement on the map or in text.







IsCatalogInMostPopularTable: catalog: 43468, numindb: 38
Update: records affected: 1



GetName: 43468 BATSU-CS1 (IRAZU)

Hit Count: updated at: Wed, 18 Jul 2018 20:20:27 GMT